Location: Calmejanne
(44.7523°N, 1.9418°E)
Time: 10:06:16
(UTC+00:00)

CZ-4B R/B - Pass Details

Date: 14 May 2026
Orbit: 700 x 797 km, 98.9° (Epoch: 5 June)

Event Time Altitude Azimuth Distance (km) Brightness Sun altitude
Exits shadow 22:05:27 28° 220° (SW) 1,298 4.5 -22.2°
Maximum altitude 22:07:07 37° 262° (W) 1,091 4.4 -22.4°
Drops below altitude 10° 22:11:35 10° 330° (NNW) 2,210 7.0 -22.7°
Sets 22:14:03 0° 339° (NNW) 3,149 8.2 -22.9°
